Simultaneous Nadir Overpasses (SNOs) Predictions

Prediction of SNOs between AQUA and NPP Satellite Orbit:

Table of predicted SNOs for the next 14.0 days since TLE Epoch: 12/14/2024
Index Date (AQUA) Time (AQUA) Lat,Lon (AQUA) SZA (AQUA ) Date (NPP) Time (NPP) Lat,Lon (NPP) SZA (NPP ) Distance(km) Time Diff (sec)
1 12/14/2024 10:20:26 81.30, -46.23 110.00 12/14/2024 10:19:52 81.30, -46.37 110.04 2.38 34
2 12/14/2024 11:09:46 -81.30, 121.39 70.00 12/14/2024 11:10:36 -81.30, 121.36 70.02 0.47 50
3 12/16/2024 20:42:40 -81.29, -21.98 69.84 12/16/2024 20:41:38 -81.29, -22.09 69.78 1.96 62
4 12/16/2024 21:31:59 81.29, 145.83 110.15 12/16/2024 21:32:21 81.30, 145.95 110.13 2.02 22
5 12/19/2024 07:54:11 -81.29, 170.31 69.75 12/19/2024 07:54:07 -81.30, 170.21 69.73 1.80 4
6 12/21/2024 18:16:21 81.29,-165.19 110.30 12/21/2024 18:15:51 81.30,-165.02 110.30 2.95 30
7 12/21/2024 19:05:40 -81.31, 2.81 69.74 12/21/2024 19:06:35 -81.30, 2.83 69.78 0.84 55
8 12/24/2024 04:38:30 -81.29,-140.64 69.70 12/24/2024 04:37:37 -81.30,-140.82 69.64 3.02 53
9 12/24/2024 05:27:49 81.30, 27.13 110.29 12/24/2024 05:28:20 81.30, 27.10 110.28 0.48 31



Historial Predications of SNOs between AQUA and NPP
